DateTimeUTC,F1_A11,F1_S11,BsB_S11,BsG_S11,BsR_S11,BbsB_S11,BbsG_S11,BbsR_S11,BaB_A11,BaG_A11,BaR_A11,Tu_S11,T_S11,Uu_S11,U_S11,P_S11,T1_A11
2021-03-25T10:00:00Z,00000200,21000000,,,,,,,0000.25,0000.15,-000.15,15.9,23.6,,00.0,0629.4,30.8
2021-03-25T10:01:00Z,00000200,21000000,,,,,,,0000.38,0000.19,0000.44,15.9,23.6,,00.0,0629.4,30.8
2021-03-25T10:02:00Z,00000200,21000000,,,,,,,0000.19,0000.13,0000.22,15.9,23.6,,00.0,0629.4,30.8
2021-03-25T10:03:00Z,00000200,61000000,,,,,,,0000.53,0000.82,0000.20,15.9,23.6,,00.0,0629.4,30.9
2021-03-25T10:04:00Z,00000200,41000000,0001.43,0000.97,0000.66,0000.07,-000.02,0000.25,0002.62,0002.35,0002.13,16.2,23.4,,00.0,0630.4,30.9
2021-03-25T10:05:00Z,00000200,01000000,0001.17,0000.80,0000.51,0000.59,0000.09,0000.12,-002.52,-002.93,-001.85,16.3,23.4,,00.0,0630.6,30.9
2021-03-25T10:06:00Z,00000200,01000000,0001.21,0000.63,0000.37,-000.03,0000.32,0000.04,-001.00,-000.36,-000.86,16.4,23.4,,00.0,0630.6,30.9
2021-03-25T10:07:00Z,00000200,01000000,0001.93,0000.52,0000.53,-000.34,0000.28,0000.04,-000.38,-000.04,-000.11,16.4,23.4,,00.0,0630.6,30.9
2021-03-25T10:08:00Z,00000200,01000000,0001.22,0000.28,0000.39,0000.04,0000.14,0000.26,0000.37,-000.33,0000.16,16.4,23.4,,00.0,0630.6,30.9
2021-03-25T10:09:00Z,00000200,01000000,0001.24,0000.83,0000.44,0000.39,0000.19,-000.11,0000.88,0001.12,0000.39,16.4,23.4,,00.0,0630.6,30.9
2021-03-25T10:10:00Z,00000200,01000000,0001.57,0000.66,0000.56,0000.55,0000.15,0000.15,0000.74,0000.60,0000.68,16.4,23.4,,00.0,0630.6,30.9
2021-03-25T10:11:00Z,00000200,01000000,0001.48,0000.81,0000.62,0000.50,0000.23,0000.07,0001.16,0001.19,0000.82,16.3,23.3,,00.0,0630.6,30.8
2021-03-25T10:12:00Z,00000200,01000000,0001.41,0000.71,0000.43,0000.30,0000.39,0000.26,0000.13,0000.03,0000.38,16.2,23.3,,00.0,0630.5,30.8
2021-03-25T10:13:00Z,00000200,01000000,0001.57,0000.57,0000.49,-000.06,0000.18,-000.17,0000.46,0000.70,0000.23,16.1,23.3,,00.0,0630.5,30.8
2021-03-25T10:14:00Z,00000200,01000000,0001.50,0000.65,0000.57,-000.02,0000.07,0000.10,0000.64,0000.13,0000.16,16.1,23.3,,00.0,0630.5,30.8
2021-03-25T10:15:00Z,00000200,01000000,0001.53,0000.76,0000.75,0000.74,0000.05,0000.15,0000.61,0000.69,0000.58,16.0,23.2,,00.0,0630.5,30.8
2021-03-25T10:16:00Z,00000200,01000000,0001.39,0000.60,0000.36,0000.23,0000.29,-000.03,0001.49,0001.04,0000.80,16.0,23.2,,00.0,0630.5,30.8
2021-03-25T10:17:00Z,00000200,01000000,0001.16,0000.66,0000.53,0000.33,0000.25,0000.26,0000.57,0000.72,0000.76,16.1,23.2,,00.0,0630.5,30.8
2021-03-25T10:18:00Z,00000200,01000000,0001.60,0001.09,0000.39,0000.14,0000.32,-000.12,0000.86,0000.96,0000.54,16.1,23.2,,00.0,0630.5,30.8
2021-03-25T10:19:00Z,00000200,01000000,0001.58,0000.96,0000.69,0000.20,0000.22,0000.12,0000.76,0000.51,0000.42,16.2,23.2,,00.0,0630.5,30.9
2021-03-25T10:20:00Z,00000200,01000000,0000.91,0001.00,0000.56,0000.73,0000.25,0000.10,0000.50,0000.50,0000.58,16.3,23.2,,00.0,0630.5,30.9
2021-03-25T10:21:00Z,00000200,01000000,0001.63,0001.03,0000.65,0000.21,0000.26,0000.03,0000.97,0000.58,0000.14,16.3,23.3,,00.0,0630.5,30.9
2021-03-25T10:22:00Z,00000200,01000000,0001.42,0000.79,0000.20,-000.01,0000.11,0000.19,0000.71,0000.84,0000.50,16.4,23.3,,00.0,0630.5,30.9
2021-03-25T10:23:00Z,00000200,01000000,0000.89,0000.96,0000.42,0000.03,0000.23,-000.08,0000.68,0000.91,0000.68,16.4,23.3,,00.0,0630.5,30.9
2021-03-25T10:24:00Z,00000200,01000000,0000.72,0001.05,0000.39,0000.11,0000.04,0000.13,0000.09,0000.10,0000.21,16.4,23.4,,00.0,0630.5,30.9
2021-03-25T10:25:00Z,00000200,01000000,0001.60,0001.08,0000.63,0000.11,0000.24,0000.11,0000.60,0000.80,0000.35,16.5,23.4,,00.0,0630.4,30.9
2021-03-25T10:26:00Z,00000200,01000000,0001.69,0001.21,0000.69,0000.29,0000.26,0000.18,0000.77,-000.01,0000.43,16.5,23.4,,00.0,0630.4,30.9
2021-03-25T10:27:00Z,00000200,01000000,0001.52,0001.00,0000.68,0000.30,0000.21,0000.15,0000.45,0000.53,0000.14,16.4,23.3,,00.0,0630.4,30.9
2021-03-25T10:28:00Z,00000200,01000000,0001.05,0000.93,0000.76,0000.28,0000.29,0000.24,0000.77,0000.57,0000.37,16.4,23.3,,00.0,0630.4,30.9
2021-03-25T10:29:00Z,00000200,01000000,0000.64,0000.85,0000.67,0000.29,0000.09,-000.00,0000.39,0000.50,0000.33,16.3,23.3,,00.0,0630.4,30.8
2021-03-25T10:30:00Z,00000200,01000000,0002.03,0001.05,0000.65,0000.06,0000.24,0000.12,-000.32,-000.20,0000.22,16.3,23.3,,00.0,0630.4,30.8
2021-03-25T10:31:00Z,00000200,01000000,0001.30,0000.97,0000.57,0000.62,0000.49,0000.36,0000.43,0000.28,-000.01,16.3,23.2,,00.0,0630.4,30.8
2021-03-25T10:32:00Z,00000200,01000000,0000.82,0000.75,0000.38,0000.33,0000.25,0000.14,-000.40,-000.37,-000.25,16.3,23.2,,00.0,0630.4,30.9
2021-03-25T10:33:00Z,00000200,01000000,0002.09,0000.65,0000.24,0000.31,0000.27,-000.08,0000.68,0000.47,0000.43,16.3,23.2,,00.0,0630.5,30.9
2021-03-25T10:34:00Z,00000200,01000000,0001.64,0000.69,0000.46,0000.49,0000.28,-000.05,0000.98,0000.85,0001.15,16.4,23.3,,00.0,0630.5,30.9
2021-03-25T10:35:00Z,00000200,01000000,0001.43,0000.71,0000.26,-000.15,0000.27,-000.08,-000.04,0000.19,-000.44,16.4,23.3,,00.0,0630.5,30.9
2021-03-25T10:36:00Z,00000200,01000000,0001.61,0000.72,0000.34,-000.12,0000.06,0000.17,0000.29,0000.71,0000.29,16.5,23.3,,00.0,0630.5,30.9
2021-03-25T10:37:00Z,00000200,01000000,0001.27,0000.90,0000.68,0000.69,0000.24,0000.02,0000.62,0000.52,0000.72,16.5,23.4,,00.0,0630.5,30.9
2021-03-25T10:38:00Z,00000200,01000000,0001.42,0000.87,0000.40,0000.07,0000.04,0000.01,0000.76,0000.51,0000.33,16.6,23.4,,00.0,0630.5,30.9
2021-03-25T10:39:00Z,00000200,01000000,0001.33,0001.05,0000.54,0000.20,0000.15,0000.18,0000.90,0000.66,0000.47,16.6,23.4,,00.0,0630.5,30.9
2021-03-25T10:40:00Z,00000200,01000000,0001.41,0000.94,0000.68,0000.18,0000.32,0000.17,0000.37,0000.11,0000.07,16.5,23.4,,00.0,0630.5,30.9
2021-03-25T10:41:00Z,00000200,01000000,0001.02,0001.14,0000.55,0000.37,0000.29,0000.08,0000.12,0000.63,0000.42,16.5,23.4,,00.0,0630.5,30.9
2021-03-25T10:42:00Z,00000200,01000000,0001.50,0000.74,0000.41,0000.23,0000.13,-000.01,0000.91,0000.38,0000.44,16.4,23.3,,00.0,0630.5,30.9
2021-03-25T10:43:00Z,00000200,01000000,0001.11,0000.83,0000.66,-000.07,0000.13,0000.19,0000.32,0000.35,0000.19,16.4,23.3,,00.0,0630.5,30.9
2021-03-25T10:44:00Z,00000200,01000000,0001.44,0000.83,0000.41,0000.09,0000.25,0000.04,0000.55,0000.61,0000.55,16.3,23.3,,00.0,0630.5,30.8
2021-03-25T10:45:00Z,00000200,01000000,0001.13,0001.16,0000.43,0000.37,0000.43,0000.10,0000.35,0000.60,0000.52,16.2,23.3,,00.0,0630.5,30.8
2021-03-25T10:46:00Z,00000200,01000000,0001.52,0000.97,0000.64,0000.26,0000.09,0000.12,0001.07,0000.88,0000.50,16.2,23.2,,00.0,0630.5,30.8
2021-03-25T10:47:00Z,00000200,01000000,0001.45,0000.99,0000.62,0000.19,0000.28,-000.05,0000.71,0000.18,0000.42,16.3,23.2,,00.0,0630.5,30.8
2021-03-25T10:48:00Z,00000200,01000000,0001.43,0001.00,0000.02,0000.16,0000.19,-000.00,0000.11,0000.67,0000.30,16.3,23.2,,00.0,0630.5,30.9
2021-03-25T10:49:00Z,00000200,01000000,0001.87,0001.12,0000.51,0000.31,0000.27,-000.17,0000.53,0000.18,0000.43,16.4,23.3,,00.0,0630.5,30.9
2021-03-25T10:50:00Z,00000200,01000000,0001.28,0000.89,0000.36,0000.34,0000.19,0000.12,0000.74,0000.72,0000.26,16.4,23.3,,00.0,0630.5,30.9
2021-03-25T10:51:00Z,00000200,01000000,0001.44,0000.95,0000.58,0000.19,0000.22,0000.18,0000.20,0000.39,0000.19,16.5,23.3,,00.0,0630.5,30.9
2021-03-25T10:52:00Z,00000200,01000000,0001.68,0000.84,0000.62,0000.25,0000.39,0000.13,0000.90,0000.54,0000.65,16.5,23.4,,00.0,0630.5,30.9
2021-03-25T10:53:00Z,00000200,01000000,0001.61,0000.84,0000.66,0000.21,0000.45,0000.06,0000.75,0000.61,0000.28,16.6,23.4,,00.0,0630.6,30.9
2021-03-25T10:54:00Z,00000200,01000000,0001.25,0000.80,0000.52,-000.04,0000.28,0000.00,0000.21,0000.52,0000.59,16.6,23.4,,00.0,0630.6,30.9
2021-03-25T10:55:00Z,00000200,01000000,0001.41,0000.61,0000.56,0000.51,0000.18,0000.30,0000.54,0000.27,0000.05,16.7,23.5,,00.0,0630.6,30.9
2021-03-25T10:56:00Z,00000200,01000000,0001.78,0000.82,0000.62,0000.31,0000.22,-000.00,0000.14,0000.39,0000.30,16.7,23.5,,00.0,0630.6,30.9
2021-03-25T10:57:00Z,00000200,41000000,,,,,,,0000.10,-000.16,0000.09,16.7,23.5,,00.0,0630.6,30.9
2021-03-25T10:58:00Z,00000200,61000000,,,,,,,0000.32,0000.37,0000.11,16.3,23.6,,00.0,0629.6,30.9
2021-03-25T10:59:00Z,00000200,21000000,,,,,,,0000.18,-000.08,-000.05,16.2,23.7,,00.0,0629.6,30.9
